DELTA 1 DEB, 7029

Orbit data source: Space-Track

DELTA 1 DEB, 7029 is space debris in SSO originally from a launch on Tue, 06 Nov 1973 UTC launched from the Air Force Western Test Range (AFWTR). Debris objects in space refer to the collection of defunct objects orbiting the Earth. Examples of debris include non-operational satellites, rocket bodies, and fragments generated from explosions, collisions, or faulty payload assembly.

Loading next visibility...
Identifier
7029, 1973-086V
Orbit
SSO
Country
Flag of USUS
Related business
Manufacturer
Unknown
Mission
Spacecraft
Bus & Motor
Unknown
Mass
Unknown
Launch date (UTC)
1973-11-06 (53 years ago)
Launch vehicle
Unknown
Launch site
Air Force Western Test Range (AFWTR)
Object type
Payload
Rocket body
Debris
Shape & HBR
Unknown shape, 0.5 m
Radar Cross Section
Medium (>0.1 m² and <1 m²)

Expand to show TLE details & history
Last TLE update: 19 hours ago

TLE from 19 hours ago
0 DELTA 1 DEB
1 07029U 73086V   26264.00153411 -.00000036  00000-0  81140-4 0  9995
2 07029 102.3487 282.2926 0012613  68.0525 319.4017 12.37176494387631
Epoch: 2026-09-21T00:02Z
TLE epoch observation values (Epoch: 2026-09-21T00:02:12.547Z)
Latitude
26.71238°
Longitude
-84.44126°
Altitude
1,513.959 km
Speed
7.114 km/s
True Right ascension
18h 23m 59s
True Declination
26° 35' 16"
Sunlit
Object was in daylight at epoch
Visualization orbit readout
Latitude
Unknown
Longitude
Unknown
Altitude
Unknown
Speed
Unknown
Apparent Right ascension
Unknown
Apparent Declination
Unknown
Sunlit
N/A
Visualization observer readout
Local Sidereal Time
11:59:00
Azimuth
Unknown
Elevation
Unknown
Doppler factor
Unknown
Orbital elements
Apogee altitude
1,526.152 km
Perigee altitude
1,506.237 km
Semi-major axis
7,894.331 km
Eccentricity
0.00126
Inclination
102.3487°
RAAN
282.2926°
Arg. of periapsis
68.0525°
True anomaly
319.30753°
Mean anomaly
319.4017°
Eccentric anomaly
319.35463°
Mean motion
3.09435 °/min
Orbital period
116.34 mins
BSTAR
0.00008114
Loading maneuver chart data...
Computing Atmospheric mass density...
Loading historical data...
Loading historical data...
Loading historical data...
Loading historical data...
Loading historical data...
Loading historical data...
Loading historical data...

Documentation

Showing up to 5 results
|